Zurück zum Katalog

FENGYUN 1C DEB

AktivSSO
NORAD 30600·DEBRIS·🇨🇳 China

Gestartet May 10, 1999 von Taiyuan Satellite Launch Center

Loading…

Nächste Überflüge (nächste 24 Stunden)

TLE

AktuellSource: Space-Track

Epoche: Sep 11, 2026, 17:39 UTC

1 30600U 99025AMF 26254.73585080  .00002762  00000-0  96938-3 0  9994
2 30600  98.3921 186.6982 0312444 184.7439 175.0756 14.11827494982794

Verfolge FENGYUN 1C DEB in Echtzeit mit AllMySat

Download on the App Store